Torna al catalogo

ALOUETTE 2

AttivoScienzaUNKNOWN
NORAD 1804·PAYLOAD·🇨🇦 Canada

Lanciato Nov 29, 1965 da Vandenberg Space Force Base

Loading…

Prossimi Passaggi (prossime 24 ore)

TLE

AggiornatoSource: Space-Track

Epoca: Sep 14, 2026, 14:18 UTC

1 01804U 65098A   26257.59605996  .00000719  00000-0  22845-3 0  9993
2 01804  79.8000 200.5869 1330892  51.2635 320.0024 12.28423520690259

Traccia ALOUETTE 2 in tempo reale con AllMySat

Download on the App Store